Skip Page Navigation
NASA JPL Caltech
NASA Logo - Jet Propulsion Laboratory + View the NASA Portal
+ Center for Near-Earth Object Studies
JPL Home Earth Solar System Stars & Galaxies Technology
JPL Solar System Dynamics
BODIES ORBITS EPHEMERIDES TOOLS PHYSICAL DATA DISCOVERY FAQ SITE MAP
JPL Small-Body Database Browser
Search: [ help ]  
2201 Oljato (1947 XC)
Classification: Apollo [NEO, PHA]          SPK-ID: 2002201
Ephemeris | Orbit Diagram | Orbital Elements | Mission Design | Physical Parameters | Discovery Circumstances | Close-Approach Data ]

[ show orbit diagram ]
Orbital Elements at Epoch 2459000.5 (2020-May-31.0) TDB
Reference: JPL 221 (heliocentric ecliptic J2000)
 Element Value Uncertainty (1-sigma)   Units 
e .7128855026986447 3.2818e-08  
a 2.174083937532017 9.0771e-09 au
q .6242110168154563 6.9286e-08 au
i 2.52242424570736 3.836e-06 deg
node 74.98699241579975 0.00010912 deg
peri 98.24728883974767 0.00010901 deg
M 203.1157355122402 2.8768e-06 deg
tp 2459510.757942128322
(2021-Oct-23.25794213)
1.2287e-05 TDB
period 1170.881348527646
3.21
7.3328e-06
2.008e-08
d
yr
n .3074607008239486 1.9255e-09 deg/d
Q 3.723956858248578 1.5548e-08 au
  Orbit Determination Parameters
   # obs. used (total)      1038  
   # delay obs. used      0  
   # Doppler obs. used      5  
   data-arc span      32492 days (88.96 yr)  
   first obs. used      1931-12-03  
   last obs. used      2020-11-17  
   planetary ephem.      DE431  
   SB-pert. ephem.      SB431-N16  
   condition code      0  
   norm. resid. RMS      .46608  
   source      ORB  
   producer      Otto Matic  
   solution date      2020-Nov-18 05:28:35  

Additional Information
 Earth MOID = .00312536 au 
 Jupiter MOID = 1.24708 au 
 T_jup = 3.299 
[ show covariance matrix ]

Ephemeris | Orbit Diagram | Orbital Elements | Mission Design | Physical Parameters | Discovery Circumstances | Close-Approach Data ]

Physical Parameter Table
Parameter Symbol Value Units Sigma Reference Notes
absolute magnitude H 15.3   n/a MPO492776 IRAS observations used: 11
diameter diameter 1.80 km 0.1 IRAS-A-FPA-3-RDR-IMPS-V6.0 IRAS observations used: 11
rotation period rot_per 26. h n/a LCDB (Rev. 2019-August); Warner et al., 2009 lower-limit; Result based on less than full coverage, so that the period may be wrong by 30 percent or so.
Published Reference List:
[Pravec, P.; Wolf, M.; Sarounova, L. (1995) http://www.asu.cas.cz/~ppravec/neo.htm]
geometric albedo albedo 0.4328   0.030 IRAS-A-FPA-3-RDR-IMPS-V6.0 IRAS observations used: 11
SMASSII spectral type spec_B Sq   n/a EAR-A-5-DDR-TAXONOMY-V4.0 based on a high-resolution spectrum by Xu et al. (1995) or Bus and Binzel (2002)

2201 Oljato (1947 XC)          Discovered 1947-Dec-12 by Giclas, H. L. at Flagstaff (LO)
Reference: DISCOVERY.DBLast Updated: 2003-08-29

[ show close-approach data ]
Alternate Designations
 1947 XC = 1979 VU2 = 1979 XA 
Ephemeris | Orbit Diagram | Orbital Elements | Mission Design | Physical Parameters | Discovery Circumstances | Close-Approach Data ]
ABOUT SSD CREDITS/AWARDS PRIVACY/COPYRIGHT GLOSSARY LINKS
FirstGov 2020-Nov-30 02:34 UT
(server date/time)  
NASA Home Page
Site Manager:   Ryan S. Park
Webmaster  Alan B. Chamberlin